| time (UTC) | temp C | wind direction | speed KPH | gust KPH | rain 1hr cm | rain 24hr cm | rain mn cm | humidity % | barometer mb |
| 20260902192537 | 28 | 203 | 4.8 | 24.1 | 0.00 | 0.00 | 0.00 | 75 | 1014.2 |
| 20260902191517 | 27 | 225 | 9.7 | 16.1 | 0.00 | 0.00 | 0.00 | 77 | 1014.3 |
| 20260902190517 | 27 | 248 | 3.2 | 11.3 | 0.00 | 0.00 | 0.00 | 78 | 1014.4 |
| 20260902185517 | 27 | 225 | 6.4 | 14.5 | 0.00 | 0.00 | 0.00 | 78 | 1014.4 |
| 20260902184517 | 27 | 225 | 4.8 | 11.3 | 0.00 | 0.00 | 0.00 | 78 | 1014.3 |
| 20260902183517 | 27 | 248 | 4.8 | 12.9 | 0.00 | 0.00 | 0.00 | 76 | 1014.2 |
| 20260902182517 | 27 | 225 | 1.6 | 6.4 | 0.00 | 0.00 | 0.00 | 77 | 1014.4 |
| 20260902181517 | 27 | 225 | 3.2 | 9.7 | 0.00 | 0.00 | 0.00 | 77 | 1014.3 |
| 20260902180516 | 27 | 225 | 3.2 | 9.7 | 0.00 | 0.00 | 0.00 | 78 | 1014.0 |
| 20260902175517 | 27 | 225 | 3.2 | 6.4 | 0.00 | 0.00 | 0.00 | 78 | 1014.3 |
| 20260902174517 | 27 | 225 | 4.8 | 12.9 | 0.00 | 0.00 | 0.00 | 77 | 1014.4 |
| 20260902173517 | 27 | 180 | 4.8 | 12.9 | 0.00 | 0.00 | 0.00 | 76 | 1014.3 |
| 20260902172517 | 27 | 225 | 3.2 | 11.3 | 0.00 | 0.00 | 0.00 | 76 | 1014.5 |
| 20260902171517 | 27 | 225 | 4.8 | 9.7 | 0.00 | 0.00 | 0.00 | 78 | 1014.5 |
| 20260902170517 | 27 | 225 | 1.6 | 8.0 | 0.00 | 0.00 | 0.00 | 77 | 1014.6 |
| 20260902165538 | 27 | 158 | 6.4 | 11.3 | 0.00 | 0.00 | 0.00 | 78 | 1014.5 |
| 20260902164517 | 26 | 158 | 8.0 | 16.1 | 0.00 | 0.00 | 0.00 | 77 | 1014.4 |
| 20260902163517 | 26 | 135 | 4.8 | 9.7 | 0.00 | 0.00 | 0.00 | 79 | 1014.7 |
| 20260902162516 | 26 | 158 | 8.0 | 14.5 | 0.00 | 0.00 | 0.00 | 79 | 1014.7 |
| 20260902161516 | 26 | 180 | 6.4 | 14.5 | 0.00 | 0.00 | 0.00 | 78 | 1014.7 |
| 20260902160516 | 25 | 135 | 6.4 | 12.9 | 0.00 | 0.00 | 0.00 | 78 | 1014.6 |
| 20260902155517 | 25 | 158 | 3.2 | 8.0 | 0.00 | 0.00 | 0.00 | 81 | 1014.4 |
| 20260902154517 | 25 | 180 | 4.8 | 11.3 | 0.00 | 0.00 | 0.00 | 81 | 1014.5 |
| 20260902153517 | 24 | 113 | 4.8 | 12.9 | 0.00 | 0.00 | 0.00 | 83 | 1014.2 |
| 20260902152517 | 23 | 158 | 1.6 | 8.0 | 0.00 | 0.00 | 0.00 | 85 | 1014.5 |
| 20260902151516 | 23 | 113 | 8.0 | 12.9 | 0.00 | 0.00 | 0.00 | 83 | 1014.2 |
| 20260902150516 | 23 | 158 | 1.6 | 8.0 | 0.00 | 0.00 | 0.00 | 84 | 1014.6 |
| 20260902145516 | 22 | 135 | 3.2 | 11.3 | 0.00 | 0.00 | 0.00 | 85 | 1014.5 |
| 20260902144517 | 22 | 135 | 9.7 | 16.1 | 0.00 | 0.00 | 0.00 | 84 | 1014.3 |
| 20260902143517 | 22 | 113 | 8.0 | 14.5 | 0.00 | 0.00 | 0.00 | 85 | 1014.3 |
| 20260902142516 | 22 | 135 | 3.2 | 6.4 | 0.00 | 0.00 | 0.00 | 88 | 1014.6 |
| 20260902141516 | 21 | 90 | 4.8 | 12.9 | 0.00 | 0.00 | 0.00 | 87 | 1014.6 |
| 20260902140516 | 21 | 90 | 3.2 | 11.3 | 0.00 | 0.00 | 0.00 | 90 | 1014.9 |
| 20260902135516 | 20 | 248 | 1.6 | 9.7 | 0.00 | 0.00 | 0.00 | 92 | 1015.2 |
| 20260902134517 | 20 | 135 | 1.6 | 4.8 | 0.00 | 0.00 | 0.00 | 92 | 1014.8 |
| 20260902133516 | 20 | 113 | 1.6 | 4.8 | 0.00 | 0.00 | 0.00 | 93 | 1014.7 |
| 20260902132536 | 20 | 90 | 3.2 | 8.0 | 0.00 | 0.00 | 0.00 | 93 | 1014.7 |
| 20260902131517 | 19 | 90 | 3.2 | 6.4 | 0.00 | 0.00 | 0.00 | 93 | 1015.0 |
| 20260902130516 | 19 | 113 | 4.8 | 11.3 | 0.00 | 0.00 | 0.00 | 93 | 1014.6 |
| 20260902125538 | 19 | 113 | 4.8 | 9.7 | 0.00 | 0.00 | 0.00 | 93 | 1014.7 |
| 20260902124516 | 19 | 90 | 1.6 | 6.4 | 0.00 | 0.00 | 0.00 | 94 | 1014.8 |
| 20260902123516 | 19 | 68 | 4.8 | 12.9 | 0.00 | 0.00 | 0.00 | 94 | 1014.6 |
| 20260902122536 | 18 | 68 | 4.8 | 11.3 | 0.00 | 0.00 | 0.00 | 95 | 1014.3 |
| 20260902121516 | 19 | 113 | 11.3 | 17.7 | 0.00 | 0.00 | 0.00 | 94 | 1014.1 |
| 20260902120516 | 19 | 68 | 8.0 | 14.5 | 0.00 | 0.00 | 0.00 | 94 | 1014.2 |
| 20260902115556 | 19 | 90 | 11.3 | 17.7 | 0.00 | 0.00 | 0.00 | 94 | 1014.7 |
| 20260902114516 | 19 | 0 | 3.2 | 8.0 | 0.00 | 0.00 | 0.00 | 94 | 1015.7 |
| 20260902113516 | 19 | 293 | 1.6 | 6.4 | 0.00 | 0.00 | 0.00 | 94 | 1015.7 |
| 20260902112518 | 19 | 338 | 4.8 | 14.5 | 0.00 | 0.00 | 0.00 | 94 | 1015.5 |
| 20260902111516 | 19 | 0.0 | 6.4 | 0.00 | 0.00 | 0.00 | 93 | 1015.2 | |
| 20260902110516 | 20 | 45 | 3.2 | 8.0 | 0.00 | 0.00 | 0.00 | 93 | 1014.9 |
| 20260902105518 | 20 | 113 | 3.2 | 11.3 | 0.00 | 0.00 | 0.00 | 93 | 1014.2 |
| 20260902104517 | 20 | 68 | 3.2 | 8.0 | 0.00 | 0.00 | 0.00 | 93 | 1014.3 |
| 20260902103516 | 20 | 68 | 4.8 | 9.7 | 0.00 | 0.00 | 0.00 | 92 | 1014.2 |
| 20260902102556 | 20 | 45 | 3.2 | 8.0 | 0.00 | 0.00 | 0.00 | 92 | 1014.3 |
| 20260902101516 | 20 | 68 | 4.8 | 11.3 | 0.00 | 0.00 | 0.00 | 92 | 1014.1 |
| 20260902100516 | 20 | 90 | 4.8 | 12.9 | 0.00 | 0.00 | 0.00 | 91 | 1014.3 |
| 20260902095536 | 20 | 90 | 4.8 | 9.7 | 0.00 | 0.00 | 0.00 | 90 | 1014.3 |
| 20260902094536 | 20 | 45 | 3.2 | 9.7 | 0.00 | 0.00 | 0.00 | 90 | 1014.6 |
| 20260902093516 | 20 | 68 | 3.2 | 6.4 | 0.00 | 0.00 | 0.00 | 89 | 1014.6 |
| 20260902092516 | 20 | 68 | 1.6 | 4.8 | 0.00 | 0.00 | 0.00 | 89 | 1014.6 |
| 20260902091516 | 20 | 0.0 | 4.8 | 0.00 | 0.00 | 0.00 | 88 | 1014.7 | |
| 20260902090516 | 21 | 338 | 1.6 | 6.4 | 0.00 | 0.00 | 0.00 | 88 | 1015.0 |
| 20260902085516 | 21 | 315 | 3.2 | 12.9 | 0.00 | 0.00 | 0.00 | 87 | 1015.4 |
| 20260902084536 | 21 | 315 | 6.4 | 17.7 | 0.00 | 0.00 | 0.00 | 87 | 1015.5 |
| 20260902083516 | 21 | 315 | 16.1 | 30.6 | 0.00 | 0.00 | 0.00 | 86 | 1016.0 |
| 20260902082516 | 22 | 293 | 9.7 | 20.9 | 0.00 | 0.00 | 0.00 | 87 | 1016.1 |
| 20260902081516 | 22 | 113 | 9.7 | 40.2 | 0.00 | 0.00 | 0.00 | 86 | 1014.3 |
| 20260902080516 | 22 | 135 | 3.2 | 6.4 | 0.00 | 0.00 | 0.00 | 84 | 1013.8 |
| 20260902075516 | 22 | 113 | 6.4 | 9.7 | 0.00 | 0.00 | 0.00 | 83 | 1013.8 |
| 20260902074516 | 22 | 113 | 6.4 | 11.3 | 0.00 | 0.00 | 0.00 | 83 | 1013.8 |
| 20260902073516 | 22 | 90 | 6.4 | 11.3 | 0.00 | 0.00 | 0.00 | 83 | 1013.8 |
| 20260902072516 | 22 | 113 | 3.2 | 9.7 | 0.00 | 0.00 | 0.00 | 86 | 1014.0 |
| 20260902071516 | 22 | 113 | 4.8 | 9.7 | 0.00 | 0.00 | 0.00 | 87 | 1013.9 |
| 20260902070516 | 22 | 90 | 6.4 | 9.7 | 0.00 | 0.00 | 0.00 | 89 | 1014.0 |
| 20260902065516 | 22 | 113 | 4.8 | 9.7 | 0.00 | 0.00 | 0.00 | 89 | 1013.9 |
| 20260902064536 | 22 | 90 | 4.8 | 6.4 | 0.00 | 0.00 | 0.00 | 90 | 1014.0 |
| 20260902063516 | 22 | 90 | 1.6 | 8.0 | 0.00 | 0.00 | 0.00 | 90 | 1014.0 |
| 20260902062516 | 22 | 90 | 4.8 | 9.7 | 0.00 | 0.00 | 0.00 | 91 | 1013.8 |
| 20260902061515 | 22 | 68 | 4.8 | 8.0 | 0.00 | 0.00 | 0.00 | 91 | 1014.1 |
| 20260902060536 | 22 | 45 | 3.2 | 6.4 | 0.00 | 0.00 | 0.00 | 91 | 1014.3 |
| 20260902055515 | 22 | 68 | 6.4 | 12.9 | 0.00 | 0.00 | 0.00 | 94 | 1014.5 |
| 20260902054516 | 22 | 315 | 1.6 | 4.8 | 0.00 | 0.00 | 0.00 | 96 | 1014.8 |
| 20260902053516 | 22 | 315 | 3.2 | 8.0 | 0.00 | 0.00 | 0.00 | 96 | 1014.7 |
| 20260902052516 | 22 | 68 | 1.6 | 4.8 | 0.00 | 0.00 | 0.00 | 96 | 1014.3 |
| 20260902051516 | 22 | 45 | 1.6 | 6.4 | 0.00 | 0.00 | 0.00 | 96 | 1014.4 |
| 20260902050516 | 23 | 90 | 3.2 | 6.4 | 0.00 | 0.00 | 0.00 | 96 | 1014.3 |
| 20260902045516 | 23 | 68 | 3.2 | 4.8 | 0.00 | 0.00 | 0.00 | 95 | 1014.4 |
| 20260902044516 | 23 | 90 | 4.8 | 8.0 | 0.00 | 0.00 | 0.00 | 95 | 1014.3 |
| 20260902043517 | 23 | 0.0 | 4.8 | 0.00 | 0.00 | 0.00 | 94 | 1014.1 | |
| 20260902042516 | 23 | 0.0 | 0.0 | 0.00 | 0.00 | 0.00 | 93 | 1014.2 | |
| 20260902041516 | 23 | 0.0 | 0.0 | 0.00 | 0.00 | 0.00 | 93 | 1014.0 | |
| 20260902040516 | 23 | 0.0 | 0.0 | 0.00 | 0.00 | 0.00 | 93 | 1013.9 | |
| 20260902035516 | 23 | 0.0 | 3.2 | 0.00 | 0.00 | 0.00 | 93 | 1014.1 | |
| 20260902034516 | 23 | 0.0 | 3.2 | 0.00 | 0.00 | 0.00 | 92 | 1014.3 | |
| 20260902033516 | 24 | 0.0 | 4.8 | 0.00 | 0.00 | 0.00 | 92 | 1014.3 | |
| 20260902032516 | 24 | 0.0 | 0.0 | 0.00 | 0.00 | 0.00 | 91 | 1014.3 | |
| 20260902031516 | 24 | 90 | 3.2 | 4.8 | 0.00 | 0.00 | 0.00 | 90 | 1014.2 |
| 20260902030516 | 24 | 0.0 | 0.0 | 0.00 | 0.00 | 0.00 | 90 | 1014.3 | |
| 20260902025518 | 24 | 0.0 | 0.0 | 0.00 | 0.00 | 0.00 | 90 | 1014.4 | |
| 20260902024516 | 24 | 0.0 | 0.0 | 0.00 | 0.00 | 0.00 | 89 | 1014.5 | |
| 20260902023516 | 24 | 0.0 | 0.0 | 0.00 | 0.00 | 0.00 | 89 | 1014.5 | |
| 20260902022516 | 24 | 0.0 | 0.0 | 0.00 | 0.00 | 0.00 | 89 | 1014.5 | |
| 20260902021516 | 25 | 0.0 | 0.0 | 0.00 | 0.00 | 0.00 | 89 | 1014.4 | |
| 20260902020538 | 25 | 0.0 | 0.0 | 0.00 | 0.00 | 0.00 | 89 | 1014.3 | |
| 20260902015516 | 25 | 0.0 | 1.6 | 0.00 | 0.00 | 0.00 | 89 | 1014.3 | |
| 20260902014516 | 25 | 338 | 3.2 | 6.4 | 0.00 | 0.00 | 0.00 | 89 | 1014.1 |
| 20260902013516 | 25 | 0.0 | 0.0 | 0.00 | 0.00 | 0.00 | 88 | 1014.1 | |
| 20260902012516 | 25 | 338 | 1.6 | 6.4 | 0.00 | 0.00 | 0.00 | 88 | 1013.8 |
| 20260902011516 | 25 | 338 | 4.8 | 9.7 | 0.00 | 0.00 | 0.00 | 88 | 1013.9 |
| 20260902010516 | 25 | 315 | 1.6 | 3.2 | 0.00 | 0.00 | 0.00 | 89 | 1013.6 |
| 20260902005536 | 25 | 225 | 1.6 | 9.7 | 0.00 | 0.00 | 0.00 | 89 | 1013.1 |
| 20260902004516 | 25 | 180 | 4.8 | 9.7 | 0.00 | 0.00 | 0.00 | 88 | 1012.8 |
| 20260902003516 | 25 | 23 | 3.2 | 8.0 | 0.00 | 0.00 | 0.00 | 88 | 1013.0 |
| 20260902002516 | 25 | 158 | 8.0 | 14.5 | 0.00 | 0.00 | 0.00 | 88 | 1012.7 |
| 20260902001536 | 26 | 158 | 4.8 | 6.4 | 0.00 | 0.00 | 0.00 | 85 | 1013.6 |
| 20260902000516 | 26 | 0.0 | 0.0 | 0.00 | 0.00 | 0.00 | 84 | 1014.1 | |
| 20260901235536 | 26 | 158 | 1.6 | 4.8 | 0.00 | 0.00 | 0.00 | 84 | 1014.1 |
| 20260901234516 | 26 | 0.0 | 4.8 | 0.00 | 0.00 | 0.00 | 84 | 1014.5 | |
| 20260901233516 | 26 | 0.0 | 3.2 | 0.00 | 0.00 | 0.00 | 83 | 1014.6 | |
| 20260901232516 | 27 | 270 | 1.6 | 3.2 | 0.00 | 0.00 | 0.00 | 80 | 1014.6 |
| 20260901231516 | 28 | 248 | 1.6 | 4.8 | 0.00 | 0.00 | 0.00 | 78 | 1014.2 |
| 20260901230516 | 28 | 0.0 | 3.2 | 0.00 | 0.00 | 0.00 | 76 | 1013.9 | |
| 20260901225536 | 28 | 0.0 | 1.6 | 0.00 | 0.00 | 0.00 | 76 | 1014.2 | |
| 20260901224516 | 28 | 270 | 3.2 | 6.4 | 0.00 | 0.00 | 0.00 | 74 | 1014.1 |
| 20260901223516 | 29 | 225 | 1.6 | 4.8 | 0.00 | 0.00 | 0.00 | 74 | 1014.1 |
| 20260901222516 | 30 | 248 | 1.6 | 6.4 | 0.00 | 0.00 | 0.00 | 71 | 1014.0 |
| 20260901221516 | 29 | 248 | 1.6 | 6.4 | 0.00 | 0.00 | 0.00 | 72 | 1014.1 |
| 20260901220516 | 30 | 203 | 3.2 | 6.4 | 0.00 | 0.00 | 0.00 | 68 | 1014.2 |
| 20260901215516 | 30 | 203 | 1.6 | 6.4 | 0.00 | 0.00 | 0.00 | 71 | 1014.1 |
| 20260901214516 | 29 | 0.0 | 3.2 | 0.00 | 0.00 | 0.00 | 77 | 1014.2 | |
| 20260901213516 | 29 | 225 | 1.6 | 8.0 | 0.00 | 0.00 | 0.00 | 77 | 1014.0 |
| 20260901212516 | 29 | 225 | 4.8 | 8.0 | 0.00 | 0.00 | 0.00 | 76 | 1014.1 |
| 20260901211516 | 28 | 225 | 3.2 | 8.0 | 0.00 | 0.00 | 0.00 | 76 | 1014.2 |
| 20260901210516 | 28 | 0.0 | 3.2 | 0.00 | 0.00 | 0.00 | 78 | 1014.1 | |
| 20260901205516 | 28 | 0.0 | 0.0 | 0.00 | 0.00 | 0.00 | 76 | 1013.6 | |
| 20260901204516 | 28 | 0.0 | 3.2 | 0.00 | 0.00 | 0.00 | 74 | 1013.7 | |
| 20260901203516 | 28 | 203 | 3.2 | 14.5 | 0.00 | 0.00 | 0.00 | 72 | 1014.5 |
| 20260901202536 | 29 | 248 | 6.4 | 12.9 | 0.00 | 0.00 | 0.00 | 73 | 1015.1 |
| 20260901201515 | 30 | 248 | 4.8 | 12.9 | 0.00 | 0.00 | 0.00 | 70 | 1015.1 |
| 20260901200556 | 30 | 248 | 6.4 | 12.9 | 0.00 | 0.00 | 0.00 | 72 | 1014.9 |
| 20260901195516 | 30 | 225 | 4.8 | 12.9 | 0.00 | 0.00 | 0.00 | 72 | 1014.9 |
| 20260901194515 | 31 | 225 | 4.8 | 12.9 | 0.00 | 0.00 | 0.00 | 70 | 1015.0 |
| 20260901193515 | 31 | 225 | 4.8 | 16.1 | 0.00 | 0.00 | 0.00 | 69 | 1015.1 |